Regional Weather Roundup
Issued by NWS Charleston, WV

Home | Current Version | Previous Version | Graphics & Text | Print | Product List | Glossary On
Versions: 1 2 3 4 5 6 7 8 9 10 11 12 13 14 15 16 17 18 19 20 21 22 23 24 25 26 27 28 29 30 31 32 33 34 35 36 37 38 39 40 41 42 43 44 45 46 47 48 49
000
ASUS41 KRLX 291410
RWRRLX
West Virginia Regional Weather Roundup
National Weather Service Charleston WV
1000 AM EDT SUN MAR 29 2015

Note: "fair" indicates few or no clouds below 12,000 feet with no
significant weather and/or obstructions to visibility.

WVZ003-291500-
Northern Panhandle of West Virginia

CITY           SKY/WX    TMP DP  RH WIND       PRES   REMARKS
WHEELING       SUNNY     27  13  55 S7        30.36S
$$

WVZ009-291500-
Northwest West Virginia

CITY           SKY/WX    TMP DP  RH WIND       PRES   REMARKS
PARKERSBURG    SUNNY     29  12  49 S8        30.42F
$$

WVZ006-291500-
Western West Virginia

CITY           SKY/WX    TMP DP  RH WIND       PRES   REMARKS
HUNTINGTON     SUNNY     31  16  54 S7        30.40R
$$

WVZ015-291500-
West Central West Virginia

CITY           SKY/WX    TMP DP  RH WIND       PRES   REMARKS
CHARLESTON     SUNNY     29  12  49 SE5       30.40S
$$

WVZ022-031-291500-
North Central West Virginia

CITY           SKY/WX    TMP DP  RH WIND       PRES   REMARKS
CLARKSBURG     SUNNY     25  11  55 SW5       30.39R
MORGANTOWN     SUNNY     26   7  44 S6        30.39R
$$

WVZ025-035-042-045-291500-
Southern West Virginia

CITY           SKY/WX    TMP DP  RH WIND       PRES   REMARKS
BECKLEY        SUNNY     24   7  48 SW3       30.32R
LOGAN            N/A     30  12  47 SE9       30.33S
BLUEFIELD      SUNNY     27   5  39 W3        30.31R
LEWISBURG      SUNNY     27   7  43 S3        30.33R
$$

WVZ047-291500-
Northern Mountains of West Virginia

CITY           SKY/WX    TMP DP  RH WIND       PRES   REMARKS
ELKINS         SUNNY     22   9  57 VRB6      30.35S
$$

WVZ052-291500-
Eastern Panhandle of West Virginia

CITY           SKY/WX    TMP DP  RH WIND       PRES   REMARKS
MARTINSBURG    SUNNY     31   6  35 N8        30.40R
PETERSBURG     SUNNY     29   3  32 E5        30.40R
$$



USA.gov is the U.S. government's official web portal to all federal, state and local government web resources and services.